Location: Barnston
(51.8500°N, 0.4000°E)
Time: 11:01:00
(UTC+00:00)

NOSS 2-3 (D) - Pass Details

Date: 26 September 2023
Orbit: 506 x 1696 km, 63.3° (Epoch: 06 November)

Event Time Altitude Azimuth Distance (km) Brightness Sun altitude
Exits shadow 02:23:33 45° 326° (NW) 1,207 4.9 -29.9°
Maximum altitude 02:25:28 78° 43° (NE) 992 4.5 -29.7°
Drops below altitude 10° 02:32:57 10° 130° (SE) 3,176 7.2 -28.9°
Sets 02:36:10 0° 132° (SE) 4,327 8.0 -28.5°
